Weather History for Nellis AFB, NV

Change the Weather History Date:

Friday, August 23, 2013

  Actual Average Record
Temperature  
Mean Temperature 88 °F -  
Max Temperature 95 °F 100 °F 111 °F (1998)
Min Temperature 80 °F 75 °F 67 °F (2012)
Cooling Degree Days 22    
Growing Degree Days 38 (Base 50)    
Moisture  
Dew Point 55 °F    
Average Humidity 34    
Maximum Humidity 48    
Minimum Humidity 24    
Precipitation  
Precipitation 0.00 in - - ()
Sea Level Pressure  
Sea Level Pressure 29.80 in    
Wind  
Wind Speed 12 mph (SE)    
Max Wind Speed 20 mph    
Max Gust Speed 29 mph    
Visibility 10 miles    
Events Rain , Thunderstorm    
Averages and records for this station are not official NWS values.
T = Trace of Precipitation, MM = Missing Value Source: NWS Daily Summary

Daily Weather History Graph

Daily Weather History Graph

Search for Another Location

Airport:

Trip Planner

Search our weather history database for the weather conditions in past years. The results will help you decide how hot, cold, wet, or windy it might be!

Date:

Astronomy

Aug. 23, 2013 Rise Set
Actual Time 6:04 AM PDT 7:19 PM PDT
Civil Twilight 5:38 AM PDT 7:46 PM PDT
Nautical Twilight 5:06 AM PDT 8:18 PM PDT
Astronomical Twilight 4:32 AM PDT 8:51 PM PDT
Moon 8:49 PM PDT (8/23) 8:57 AM PDT (8/23)
Length of Visible Light 14h 08m
Length of Day
13h 14m
Waning Gibbous, 91% of the Moon is Illuminated
Aug 23
Waning Gibbous
Aug 28
Last Quarter
Sep 5
New
Sep 12
First Quarter
Sep 19
Full

Hourly Weather History & Observations

Time (PDT) Temp. Heat Index Dew Point Humidity Pressure Visibility Wind Dir Wind Speed Gust Speed Precip Events Conditions
12:38 AM 89.6 °F - 48.2 °F 24% 29.87 in 10.0 mi SW 18.4 mph - N/A   Mostly Cloudy
12:58 AM 89.4 °F - 49.3 °F 25% 29.79 in 10.0 mi SSW 11.5 mph - N/A Thunderstorm Partly Cloudy
1:58 AM 87.8 °F - 50.4 °F 27% 29.77 in 10.0 mi South 11.5 mph - N/A   Clear
2:08 AM 87.8 °F - 51.8 °F 29% 29.87 in 10.0 mi South 18.4 mph 28.8 mph N/A   Scattered Clouds
2:15 AM 87.8 °F - 51.8 °F 29% 29.88 in 10.0 mi South 12.7 mph 28.8 mph N/A Rain Light Rain
2:30 AM 86.0 °F - 51.8 °F 31% 29.88 in 10.0 mi SSE 19.6 mph 24.2 mph N/A   Scattered Clouds
2:58 AM 86.2 °F - 52.7 °F 32% 29.82 in 10.0 mi South 9.2 mph - 0.00 in   Mostly Cloudy
3:58 AM 83.3 °F 82.8 °F 57.6 °F 41% 29.83 in 10.0 mi SSW 12.7 mph - N/A   Mostly Cloudy
4:58 AM 82.0 °F 82.1 °F 58.5 °F 45% 29.83 in 10.0 mi SSE 10.4 mph - N/A   Clear
5:58 AM 81.3 °F 81.3 °F 57.7 °F 44% 29.84 in 10.0 mi South 1.2 mph - N/A   Partly Cloudy
6:58 AM 80.8 °F 81.2 °F 58.6 °F 47% 29.85 in 10.0 mi East 5.8 mph - N/A   Scattered Clouds
7:58 AM 82.0 °F 82.5 °F 60.8 °F 48% 29.87 in 10.0 mi East 10.4 mph - N/A   Partly Cloudy
8:58 AM 82.4 °F 82.6 °F 59.5 °F 46% 29.87 in 10.0 mi ESE 9.2 mph - N/A   Partly Cloudy
9:58 AM 84.6 °F 84.2 °F 59.2 °F 42% 29.88 in 10.0 mi ENE 9.2 mph - N/A   Clear
10:58 AM 87.6 °F 86.5 °F 57.4 °F 36% 29.86 in 10.0 mi East 13.8 mph 19.6 mph N/A   Scattered Clouds
11:58 AM 89.1 °F 87.5 °F 56.3 °F 33% 29.83 in 10.0 mi SE 9.2 mph - N/A   Clear
12:58 PM 91.8 °F 90.3 °F 57.2 °F 31% 29.80 in 10.0 mi ESE 13.8 mph - N/A   Clear
1:58 PM 92.7 °F 90.6 °F 55.4 °F 28% 29.78 in 10.0 mi SE 3.5 mph - N/A   Clear
2:58 PM 93.9 °F 92.0 °F 55.0 °F 27% 29.75 in 10.0 mi East 11.5 mph 18.4 mph N/A   Clear
3:58 PM 95.0 °F - 52.3 °F 24% 29.72 in 10.0 mi SE 10.4 mph - N/A   Clear
4:58 PM 93.4 °F 91.0 °F 54.0 °F 26% 29.73 in 10.0 mi East 8.1 mph - N/A   Partly Cloudy
5:58 PM 92.7 °F 90.6 °F 54.9 °F 28% 29.72 in 10.0 mi SE 5.8 mph - N/A   Partly Cloudy
6:58 PM 88.9 °F 87.3 °F 56.7 °F 33% 29.72 in 10.0 mi West 10.4 mph - N/A   Partly Cloudy
7:58 PM 87.1 °F 85.1 °F 53.6 °F 32% 29.72 in 10.0 mi West 8.1 mph - N/A   Clear
8:58 PM 86.2 °F 84.4 °F 54.0 °F 33% 29.73 in 10.0 mi SSE 2.3 mph - N/A   Clear
9:58 PM 85.3 °F 83.6 °F 54.3 °F 34% 29.74 in 10.0 mi NE 1.2 mph - N/A   Clear
10:58 PM 82.6 °F - 52.7 °F 35% 29.75 in 10.0 mi NE 3.5 mph - N/A   Scattered Clouds
11:58 PM 82.2 °F - 52.9 °F 36% 29.76 in 10.0 mi Calm Calm - N/A   Clear